Regional Weather Roundup
Issued by NWS

Home | Current Version | Previous Version | Text Only | Print | Product List | Glossary Off
Versions: 1 2 3 4 5 6 7 8 9 10 11 12 13 14 15 16 17 18 19 20 21 22 23 24 25 26 27 28 29 30 31 32 33 34 35 36 37 38 39 40 41 42 43 44 45 46 47 48 49 50

000
ASUS43 KMPX 040510
RWRMN
WEATHER ROUNDUP FOR MINNESOTA
NATIONAL WEATHER SERVICE TWIN CITIES/CHANHASSEN MN
1100 PM CST SAT DEC 03 2016


NOTE: "FAIR" INDICATES FEW OR NO CLOUDS BELOW 12,000 FEET WITH NO
SIGNIFICANT WEATHER AND/OR OBSTRUCTIONS TO VISIBILITY. N/A MEANS
CURRENT SKY AND/OR WEATHER CONDITIONS ARE NOT AVAILABLE.

MNZ060>063-068>070-040600-
   Twin Cities Metro

CITY           SKY/WX    TMP DP  RH WIND       PRES   REMARKS
TWIN CITIES    FLURRIES  32  26  78 SE12      30.13F WCI  23
ST PAUL        FLURRIES  32  26  78 SE13      30.15F WCI  22
CRYSTAL        CLOUDY    32  24  72 SE9       30.11F WCI  24
BLAINE         CLOUDY    34  27  75 SE10      30.12F WCI  26
LAKEVILLE      LGT SNOW  30  27  86 SE7       30.13S WCI  23
EDEN PRAIRIE   LGT SNOW  32  27  81 SE8       30.11S WCI  25
SOUTH ST PAUL  FLURRIES  32  25  76 SE9       30.14S WCI  24
LAKE ELMO      FLURRIES  32  27  80 SE7       30.15S WCI  26
$$
MNZ001>005-007-008-013>017-022>024-027-028-040600-
   Northwest Minnesota

CITY           SKY/WX    TMP DP  RH WIND       PRES   REMARKS
BEMIDJI        CLOUDY    26  24  90 SE10      29.99F WCI  17
HALLOCK        CLOUDY    28  27  93 SE15      29.90F WCI  17
ROSEAU         FLURRIES  27  21  80 SE10      29.96F WCI  17
WARROAD        LGT SNOW  25  21  86 SE9       29.98F WCI  15
THIEF RVR FALL CLOUDY    30  26  85 S12       29.94F WCI  20
CROOKSTON      CLOUDY    32  30  93 S16       29.93F WCI  21
FOSSTON        MIX PCPN  28  25  86 SE12      29.96S WCI  18
DETROIT LAKES  CLOUDY    32  30  93 S13       29.97F WCI  22
MOORHEAD       CLOUDY    34  30  86 SE18G26   29.94F WCI  23
PARK RAPIDS    FLURRIES  28  23  81 SE15      29.99F WCI  16
$$
MNZ006-009>011-018-025>026-040600-
   North Central Minnesota

CITY           SKY/WX    TMP DP  RH WIND       PRES   REMARKS
BAUDETTE       CLOUDY    23  19  85 SE12      30.00F WCI  12
FLAG ISLAND    CLOUDY    27  21  80 SE18      29.99F WCI  13
INTL FALLS     CLEAR     21  17  84 SE7       30.05F WCI  12
WASKISH        CLOUDY    27  23  86 SE6       30.00F WCI  20
BIG FORK       CLOUDY    28  21  74 SE7       30.04F WCI  21
LONGVILLE      LGT SNOW  27  25  93 SE9       30.04S WCI  17
GRAND RAPIDS   CLOUDY    27  21  78 SE7       30.07F WCI  19
CRANE LAKE     MOCLDY    25  21  86 CALM      30.10F
ORR            CLOUDY    25  18  74 CALM      30.05S
COOK           MOCLDY    25  19  80 SE3       30.08F
$$
MNZ012-019>021-037-040600-
   Northeast Minnesota

CITY           SKY/WX    TMP DP  RH WIND       PRES   REMARKS
DULUTH         MOCLDY    28  21  75 S8        30.10F WCI  20
ELY            CLOUDY    27  21  80 SE3       30.09F
HIBBING        CLOUDY    25  19  78 SE7       30.08F WCI  17
EVELETH        CLOUDY    28  20  74 SE6       30.10S WCI  21
DULUTH HARBOR  CLOUDY    30  23  74 S5        30.16S WCI  25
TWO HARBORS    CLOUDY    32  23  69 S3        30.11F
SILVER BAY     CLOUDY    30  21  69 S6        30.11F WCI  24
GRAND MARAIS     N/A     36  26  67 S12       30.16F
G MARAIS ARPRT CLOUDY    27  19  74 S7        30.10F WCI  19
$$
MNZ029>031-032-039>041-046>048-054>057-064-040600-
   West Central Minnesota

CITY           SKY/WX    TMP DP  RH WIND       PRES   REMARKS
FERGUS FALLS   CLOUDY    34  34 100 S15G22    30.01F FOG     WCI  24
WHEATON        CLOUDY   N/A N/A N/A S10       29.98F HAZE
MORRIS         CLOUDY    34  32  93 S14       29.98F FOG     WCI  24
ALEXANDRIA     LGT SNOW  31  31 100 S13       30.01F FOG     WCI  21
ELBOW LAKE     CLOUDY    32  32 100 S18       29.99S FOG     WCI  20
WADENA         LGT SNOW  28  27  93 SE9       30.00S WCI  20
GLENWOOD       LGT SNOW  32  30  93 SE13      30.02S WCI  22
APPLETON       CLOUDY    36  32  87 S9        30.00F FOG
BENSON         LGT SNOW  34  30  86 S12       30.01F WCI  25
ORTONVILLE     CLOUDY    34  30  86 CALM      29.97F FOG
MADISON        CLOUDY    37  36  93 S13       29.99F FOG
WILLMAR        LGT SNOW  34  34 100 SE10      30.05F WCI  26
$$
MNZ033>034-036-042>043-049>051-058-059-040600-
   Central Minnesota

CITY           SKY/WX    TMP DP  RH WIND       PRES   REMARKS
ST CLOUD       LGT SNOW  29  27  92 SE9       30.08F FOG     WCI  20
PAYNESVILLE    LGT SNOW  32  32 100 SE8       30.06S WCI  25
AITKIN         FLURRIES  30  21  69 SE9       30.06S WCI  22
PINE RIVER     MIX PCPN  27  27 100 SE7       30.07F WCI  19
BRAINERD       LGT SNOW  28  23  81 SE7       30.06F WCI  21
STAPLES        LGT SNOW  27  25  93 SE8       30.02F WCI  18
LONG PRAIRIE   LGT SNOW  30  28  93 E13       30.03F WCI  20
LITTLE FALLS   LGT SNOW  30  27  86 SE9       30.06F WCI  22
LITCHFIELD     LGT SNOW  34  34 100 SE7       30.07F WCI  28
BUFFALO        LGT SNOW  32  28  88 SE6       30.11S WCI  26
MAPLE LAKE     FLURRIES  32  31  96 SE6       30.10S WCI  26
HUTCHINSON     LGT SNOW  34  34 100 SE7       30.08F WCI  28
$$
MNZ037-044-045-052-053-040600-
   East Central Minnesota

CITY           SKY/WX    TMP DP  RH WIND       PRES   REMARKS
PRINCETON      FLURRIES  30  25  80 SE7       30.10F WCI  23
MORA           FLURRIES  30  23  74 SE6       30.13S WCI  24
CAMBRIDGE      LGT SNOW  30  23  74 SE5       30.10F WCI  25
RUSH CITY      CLOUDY    30  23  74 SE6       30.13S WCI  24
MOOSE LAKE     CLOUDY    30  21  69 S5        30.09F WCI  25
HINCKLEY       CLOUDY    30  23  74 SE5       30.12F WCI  25
CLOQUET        CLOUDY    28  19  69 SE3       30.10F
MCGREGOR       CLOUDY    30  23  74 SE7       30.08F WCI  23
$$
MNZ071>073-080-081-089-090-097-098-040600-
   Southwest Minnesota

CITY           SKY/WX    TMP DP  RH WIND       PRES   REMARKS
MONTEVIDEO     CLOUDY    34  34 100 SW8       30.03F FOG     WCI  27
GRANITE FALLS  CLOUDY    35  33  92 SE14      30.04F FOG     WCI  26
CANBY          CLOUDY    36  33  88 CALM      30.00F
MARSHALL       CLOUDY    35  31  85 S15       30.02F WCI  25
REDWOOD FALLS  CLOUDY    34  31  88 S12       30.05F FOG     WCI  25
OLIVIA         CLOUDY    34  32  93 S10       30.04F FOG     WCI  26
PIPESTONE      CLOUDY    34  34 100 S17       29.98F FOG     WCI  23
WINDOM         FLURRIES  34  34 100 S14       30.04F WCI  24
WORTHINGTON    MIX PCPN  32  31  96 S17       30.03F WCI  21
JACKSON        LGT SNOW  32  32 100 S12       30.07S WCI  23
TRACY          CLOUDY    35  33  92 S15       30.02F WCI  25
SLAYTON        CLOUDY    32  31  98 S16       30.02F WCI  21
$$
MNZ065>067-074>077-082>085-091>093-040600-
   South Central Minnesota

CITY           SKY/WX    TMP DP  RH WIND       PRES   REMARKS
MANKATO        LGT SNOW  33  32  96 S10       30.10F FOG     WCI  25
NEW ULM        LGT SNOW  34  34 100 S10       30.08S WCI  26
ST JAMES       LGT SNOW  34  34 100 SE12      30.09F WCI  25
FAIRMONT       MIX PCPN  33  32  96 S12       30.09F WCI  24
GLENCOE        LGT SNOW  33  33 100 SE6       30.09S WCI  28
FARIBAULT      FLURRIES  34  30  86 MISG      30.12F
OWATONNA       LGT SNOW  34  30  86 SE8       30.12S WCI  27
WASECA         MIX PCPN  32  32 100 SE6       30.12S WCI  26
ALBERT LEA     LGT SNOW  36  36 100 S9        30.12S
$$
MNZ078>079-086>088-094>096-040600-
   Southeast Minnesota

CITY           SKY/WX    TMP DP  RH WIND       PRES   REMARKS
ROCHESTER      LGT SNOW  30  28  92 SE13      30.14S FOG     WCI  20
RED WING       CLOUDY    34  23  64 SE9       30.15F WCI  26
STANTON        CLOUDY    33  27  79 SE8       30.13S WCI  26
DODGE CENTER   LGT SNOW  30  28  93 SE8       30.12F WCI  23
WINONA         CLOUDY    32  28  86 SE3       30.19F
AUSTIN         LGT SNOW  32  30  93 SE5       30.13S WCI  27
PRESTON        CLOUDY    30  27  88 SE6       30.16S FOG     WCI  24
$$
ABBREVIATIONS USED IN REMARKS
   TC - TEMPERATURES IN CELSIUS
  WCI - WIND CHILL INDEX
   HX - HEAT INDEX
  VSB - VISIBILITY
$$




USA.gov is the U.S. government's official web portal to all federal, state and local government web resources and services.